Durango, Mexico

11:18 AM CST on December 13, 2017 (GMT -0600)
Durango

Weather History for MMDO - January, 2013

Change the Weather History Date:

Tuesday, January 22, 2013

  Actual Average Record
Temperature  
Mean Temperature 55 °F -  
Max Temperature 71 °F 71 °F 80 °F (2014)
Min Temperature 39 °F 35 °F 26 °F (2001)
Degree Days  
Heating Degree Days 10    
Growing Degree Days 5 (Base 50)    
Moisture  
Dew Point 39 °F    
Average Humidity 63    
Maximum Humidity 100    
Minimum Humidity 22    
Precipitation  
Precipitation 0.03 in - - ()
Sea Level Pressure  
Sea Level Pressure 30.20 in    
Wind  
Wind Speed 3 mph ()    
Max Wind Speed 20 mph    
Max Gust Speed -    
Visibility 10.6 miles    
Events Rain    
Averages and records for this station are not official NWS values.
T = Trace of Precipitation, MM = Missing Value Source: Averaged Metar Reports

Daily Weather History Graph

Daily Weather History Graph

Search for Another Location

Airport or City:

Trip Planner

Search our weather history database for the weather conditions in past years. The results will help you decide how hot, cold, wet, or windy it might be!

Date:

Astronomy

Jan. 22, 2013 Rise Set
Actual Time 7:42 AM CST 6:37 PM CST
Civil Twilight 7:18 AM CST 7:01 PM CST
Nautical Twilight 6:50 AM CST 7:29 PM CST
Astronomical Twilight 6:23 AM CST 7:56 PM CST
Moon 3:06 PM CST (1/22) 4:02 AM CST (1/22)
Length of Visible Light 11h 43m
Length of Day
10h 54m
Waxing Gibbous, 83% of the Moon is Illuminated
Jan 22
Waxing Gibbous
Jan 26
Full
Feb 3
Last Quarter
Feb 10
New
Feb 17
First Quarter

Hourly Weather History & Observations

Time (CST) Temp. Windchill Dew Point Humidity Pressure Visibility Wind Dir Wind Speed Gust Speed Precip Events Conditions
5:58 AM 42 °F - 39 °F 83% 30.07 in 6 mi Calm Calm - -  
6:05 AM 37.4 °F 34.9 °F 35.6 °F 93% 30.07 in 10.0 mi WSW 3.5 mph - N/A   Clear
6:42 AM 37.4 °F - 35.6 °F 93% 30.29 in 10.0 mi Calm Calm - N/A   Clear
7:44 AM 33.8 °F 30.8 °F 33.8 °F 100% 30.31 in 10.0 mi North 3.5 mph - N/A   Clear
8:45 AM 37.4 °F - 35.6 °F 93% 30.21 in 10.0 mi Calm Calm - N/A   Clear
8:50 AM 45 °F - 38 °F 68% 30.16 in 19 mi Calm Calm - -  
9:42 AM 46.4 °F - 41.0 °F 81% 30.34 in 10.0 mi Calm Calm - N/A   Clear
10:42 AM 55.4 °F - 41.0 °F 58% 30.35 in 10.0 mi Calm Calm - N/A   Clear
11:46 AM 59.0 °F - 39.2 °F 48% 30.09 in 12.0 mi NE 5.8 mph - N/A   Partly Cloudy
11:57 AM 62 °F - 41 °F 35% 30.16 in 25 mi Calm Calm - -   Scattered Clouds
12:43 PM 62.6 °F - 39.2 °F 42% 30.29 in 12.0 mi East 4.6 mph - N/A   Mostly Cloudy
1:34 PM 64.4 °F - 24.8 °F 22% 30.24 in 12.0 mi South 3.5 mph - N/A   Drizzle
1:49 PM 66.2 °F - 28.4 °F 24% 30.23 in 12.0 mi SSW 3.5 mph - N/A   Mostly Cloudy
2:45 PM 62.6 °F - 33.8 °F 34% 29.99 in 14.0 mi NW 19.6 mph - N/A   Overcast
2:55 PM 63 °F - 40 °F 31% 30.01 in 25 mi North 13.4 mph - -   Overcast
3:40 PM 62.6 °F - 35.6 °F 37% 30.22 in 14.0 mi North 10.4 mph - N/A   Mostly Cloudy
4:47 PM 64.4 °F - 33.8 °F 32% 30.21 in 14.0 mi NNE 6.9 mph - N/A   Mostly Cloudy
5:48 PM 60.8 °F - 39.2 °F 45% 30.08 in 14.0 mi NNW 10.4 mph - N/A   Overcast
5:55 PM 59 °F - 44 °F 46% 29.99 in 25 mi NE 8.9 mph - -   Overcast
6:51 PM 55.4 °F - 44.6 °F 67% 30.29 in 10.0 mi North 9.2 mph - N/A Rain Light Rain
7:06 PM 51.8 °F - 46.4 °F 82% 30.30 in 10.0 mi North 9.2 mph - N/A   Overcast
7:43 PM 51.8 °F - 44.6 °F 76% 30.33 in 10.0 mi NW 6.9 mph - N/A   Overcast
8:48 PM 50.0 °F - 46.4 °F 87% 30.26 in 8.0 mi NNW 3.5 mph - N/A   Overcast
8:55 PM 52 °F - 47 °F 76% 30.06 in 6 mi NE 4.5 mph - - Rain Light Drizzle
9:47 PM 50.0 °F - 44.6 °F 82% 30.39 in 8.0 mi WSW 2.3 mph - N/A   Overcast
10:43 PM 48.2 °F - 44.6 °F 87% 30.39 in 8.0 mi NW 3.5 mph - N/A   Overcast
11:55 PM 50 °F - 44 °F 75% 30.10 in 6 mi Calm Calm - -   Partly Cloudy